^^

..:: Storico WU ::..




Lo storico viene creato da WUnderground con i dati che la stazione Meteomincio invia al loro server. L' aggiornamento viene fatto ogni 5 minuti circa, tuttavia possono esserci intervalli pił ampi a causa di errori, interruzioni di servizio o problemi nell' invio tramite FTP.


Storico stazione MeteoMincio
Giorno Sommario per Dicembre 16, 2022 Unità:  Metrico    Inglese   Entrambi
Giorno Settimana Mese Anno
  Max: Min: Media:
Temperatura: 5.0 °C 3.0 °C 4.2 °C
Dew Point: 5.0 °C 3.0 °C 4 °C
Umidità: 100% 96% 96%
Velocità vento: 19km/h 4km/h 10km/h
Raffica: 26km/h - -
Direzione- - West
Pressione: 1009.7 hPa 1002.5 hPa -
Precipitazioni: 0.79 mm    
 
 
Tabulato Dati per Dicembre 16, 2022
Ora Temperatura Dew Point Pressione Direzione Velocità vento Raffica Umidità Intensità pioggia (oraria) Info solare Situazione
00:04 4.0 °C 4.0 °C 1003.1 hPa WNW 16 km/h 23 km/h 96% 0.00 mm 0.00 W/m2 unknown
00:09 4.0 °C 4.0 °C 1003.1 hPa West 18 km/h 26 km/h 96% 0.00 mm 0.00 W/m2 unknown
00:14 4.0 °C 4.0 °C 1003.2 hPa WNW 17 km/h 26 km/h 96% 0.00 mm 0.00 W/m2 unknown
00:19 4.0 °C 4.0 °C 1003.2 hPa WNW 17 km/h 26 km/h 96% 0.00 mm 0.00 W/m2 unknown
00:24 4.0 °C 4.0 °C 1003.1 hPa West 17 km/h 23 km/h 96% 0.00 mm 0.00 W/m2 unknown
00:29 4.0 °C 4.0 °C 1003.1 hPa WNW 16 km/h 23 km/h 96% 0.00 mm 0.00 W/m2 unknown
00:34 4.0 °C 4.0 °C 1003.0 hPa WNW 19 km/h 23 km/h 96% 0.00 mm 0.00 W/m2 unknown
00:39 4.0 °C 3.0 °C 1002.8 hPa West 19 km/h 23 km/h 96% 0.00 mm 0.00 W/m2 unknown
00:44 4.0 °C 3.0 °C 1002.8 hPa WNW 17 km/h 23 km/h 96% 0.00 mm 0.00 W/m2 unknown
00:49 4.0 °C 3.0 °C 1002.7 hPa WNW 17 km/h 23 km/h 96% 0.20 mm 0.00 W/m2 unknown
00:54 4.0 °C 3.0 °C 1002.6 hPa WNW 18 km/h 24 km/h 96% 0.20 mm 0.00 W/m2 unknown
00:59 4.0 °C 3.0 °C 1002.7 hPa West 18 km/h 24 km/h 96% 0.20 mm 0.00 W/m2 unknown
01:04 4.0 °C 3.0 °C 1002.7 hPa WNW 17 km/h 24 km/h 96% 0.20 mm 0.00 W/m2 unknown
01:09 4.0 °C 3.0 °C 1002.6 hPa WNW 16 km/h 24 km/h 96% 0.20 mm 0.00 W/m2 unknown
01:14 4.0 °C 3.0 °C 1002.7 hPa WNW 16 km/h 23 km/h 96% 0.20 mm 0.00 W/m2 unknown
01:19 4.0 °C 3.0 °C 1002.7 hPa West 16 km/h 21 km/h 96% 0.20 mm 0.00 W/m2 unknown
01:24 4.0 °C 3.0 °C 1002.7 hPa WNW 15 km/h 23 km/h 96% 0.20 mm 0.00 W/m2 unknown
01:29 4.0 °C 3.0 °C 1002.7 hPa West 12 km/h 23 km/h 96% 0.20 mm 0.00 W/m2 unknown
01:34 4.0 °C 3.0 °C 1002.7 hPa WNW 14 km/h 19 km/h 96% 0.20 mm 0.00 W/m2 unknown
01:39 4.0 °C 3.0 °C 1002.6 hPa West 15 km/h 21 km/h 96% 0.20 mm 0.00 W/m2 unknown
01:44 4.0 °C 3.0 °C 1002.7 hPa WNW 17 km/h 21 km/h 96% 0.20 mm 0.00 W/m2 unknown
01:49 4.0 °C 3.0 °C 1002.7 hPa WNW 14 km/h 21 km/h 96% 0.20 mm 0.00 W/m2 unknown
01:54 4.0 °C 3.0 °C 1002.7 hPa WNW 13 km/h 21 km/h 96% 0.00 mm 0.00 W/m2 unknown
01:59 4.0 °C 3.0 °C 1002.7 hPa WNW 15 km/h 19 km/h 96% 0.00 mm 0.00 W/m2 unknown
02:04 4.0 °C 3.0 °C 1002.9 hPa WNW 13 km/h 19 km/h 96% 0.00 mm 0.00 W/m2 unknown
02:09 4.0 °C 3.0 °C 1002.9 hPa West 11 km/h 17 km/h 96% 0.00 mm 0.00 W/m2 unknown
02:14 4.0 °C 3.0 °C 1003.0 hPa West 12 km/h 18 km/h 96% 0.00 mm 0.00 W/m2 unknown
02:19 4.0 °C 3.0 °C 1003.0 hPa West 12 km/h 19 km/h 96% 0.00 mm 0.00 W/m2 unknown
02:24 4.0 °C 4.0 °C 1003.0 hPa West 13 km/h 19 km/h 96% 0.00 mm 0.00 W/m2 unknown
02:29 4.0 °C 4.0 °C 1002.8 hPa WNW 12 km/h 19 km/h 96% 0.00 mm 0.00 W/m2 unknown
02:34 4.0 °C 4.0 °C 1002.9 hPa West 14 km/h 19 km/h 96% 0.00 mm 0.00 W/m2 unknown
02:39 4.0 °C 4.0 °C 1003.0 hPa West 14 km/h 19 km/h 96% 0.00 mm 0.00 W/m2 unknown
02:44 4.0 °C 3.0 °C 1003.0 hPa WNW 13 km/h 19 km/h 96% 0.00 mm 0.00 W/m2 unknown
02:49 4.0 °C 3.0 °C 1002.6 hPa WNW 15 km/h 19 km/h 96% 0.00 mm 0.00 W/m2 unknown
02:54 4.0 °C 3.0 °C 1002.6 hPa West 13 km/h 19 km/h 96% 0.00 mm 0.00 W/m2 unknown
02:59 4.0 °C 3.0 °C 1002.5 hPa West 12 km/h 17 km/h 96% 0.00 mm 0.00 W/m2 unknown
03:04 4.0 °C 3.0 °C 1002.6 hPa West 13 km/h 17 km/h 96% 0.00 mm 0.00 W/m2 unknown
03:09 4.0 °C 3.0 °C 1002.7 hPa West 14 km/h 19 km/h 96% 0.00 mm 0.00 W/m2 unknown
03:14 4.0 °C 3.0 °C 1002.6 hPa West 13 km/h 19 km/h 96% 0.00 mm 0.00 W/m2 unknown
03:19 4.0 °C 3.0 °C 1002.8 hPa WSW 13 km/h 19 km/h 96% 0.00 mm 0.00 W/m2 unknown
03:24 4.0 °C 3.0 °C 1002.9 hPa WSW 16 km/h 21 km/h 96% 0.00 mm 0.00 W/m2 unknown
03:29 4.0 °C 3.0 °C 1002.9 hPa West 13 km/h 21 km/h 96% 0.00 mm 0.00 W/m2 unknown
03:34 4.0 °C 3.0 °C 1002.9 hPa West 13 km/h 19 km/h 96% 0.00 mm 0.00 W/m2 unknown
03:39 4.0 °C 3.0 °C 1003.0 hPa West 13 km/h 19 km/h 96% 0.00 mm 0.00 W/m2 unknown
03:44 4.0 °C 3.0 °C 1003.0 hPa West 16 km/h 21 km/h 96% 0.00 mm 0.00 W/m2 unknown
03:49 3.0 °C 3.0 °C 1002.8 hPa West 14 km/h 21 km/h 96% 0.00 mm 0.00 W/m2 unknown
03:54 3.0 °C 3.0 °C 1003.0 hPa West 13 km/h 19 km/h 96% 0.00 mm 0.00 W/m2 unknown
03:59 3.0 °C 3.0 °C 1003.0 hPa West 13 km/h 19 km/h 96% 0.00 mm 0.00 W/m2 unknown
04:04 3.0 °C 3.0 °C 1003.1 hPa WSW 13 km/h 19 km/h 96% 0.00 mm 0.00 W/m2 unknown
04:09 3.0 °C 3.0 °C 1003.1 hPa WSW 15 km/h 19 km/h 96% 0.00 mm 0.00 W/m2 unknown
04:14 3.0 °C 3.0 °C 1003.0 hPa West 14 km/h 19 km/h 96% 0.00 mm 0.00 W/m2 unknown
04:19 3.0 °C 3.0 °C 1002.9 hPa West 14 km/h 19 km/h 96% 0.00 mm 0.00 W/m2 unknown
04:24 3.0 °C 3.0 °C 1002.9 hPa West 11 km/h 19 km/h 96% 0.00 mm 0.00 W/m2 unknown
04:29 3.0 °C 3.0 °C 1003.0 hPa West 12 km/h 17 km/h 96% 0.00 mm 0.00 W/m2 unknown
04:34 3.0 °C 3.0 °C 1002.9 hPa West 12 km/h 17 km/h 96% 0.00 mm 0.00 W/m2 unknown
04:39 3.0 °C 3.0 °C 1002.9 hPa West 10 km/h 16 km/h 96% 0.00 mm 0.00 W/m2 unknown
04:44 3.0 °C 3.0 °C 1002.9 hPa West 11 km/h 18 km/h 96% 0.00 mm 0.00 W/m2 unknown
04:49 3.0 °C 3.0 °C 1003.0 hPa West 13 km/h 19 km/h 96% 0.00 mm 0.00 W/m2 unknown
04:54 3.0 °C 3.0 °C 1003.1 hPa West 11 km/h 19 km/h 96% 0.00 mm 0.00 W/m2 unknown
04:59 3.0 °C 3.0 °C 1003.2 hPa West 11 km/h 18 km/h 96% 0.00 mm 0.00 W/m2 unknown
05:04 3.0 °C 3.0 °C 1003.2 hPa West 13 km/h 19 km/h 96% 0.00 mm 0.00 W/m2 unknown
05:09 3.0 °C 3.0 °C 1003.1 hPa West 10 km/h 19 km/h 96% 0.00 mm 0.00 W/m2 unknown
05:14 3.0 °C 3.0 °C 1003.0 hPa West 11 km/h 17 km/h 96% 0.00 mm 0.00 W/m2 unknown
05:19 3.0 °C 3.0 °C 1003.0 hPa West 12 km/h 16 km/h 96% 0.00 mm 0.00 W/m2 unknown
05:24 3.0 °C 3.0 °C 1003.2 hPa West 13 km/h 18 km/h 96% 0.00 mm 0.00 W/m2 unknown
05:29 3.0 °C 3.0 °C 1003.2 hPa West 13 km/h 19 km/h 96% 0.00 mm 0.00 W/m2 unknown
05:34 3.0 °C 3.0 °C 1003.3 hPa West 11 km/h 19 km/h 96% 0.00 mm 0.00 W/m2 unknown
05:39 3.0 °C 3.0 °C 1003.2 hPa West 12 km/h 19 km/h 96% 0.00 mm 0.00 W/m2 unknown
05:44 3.0 °C 3.0 °C 1003.1 hPa West 12 km/h 19 km/h 96% 0.00 mm 0.00 W/m2 unknown
05:49 3.0 °C 3.0 °C 1003.1 hPa West 11 km/h 19 km/h 96% 0.00 mm 0.00 W/m2 unknown
05:54 3.0 °C 3.0 °C 1003.2 hPa West 10 km/h 14 km/h 96% 0.00 mm 0.00 W/m2 unknown
05:59 3.0 °C 3.0 °C 1003.2 hPa West 11 km/h 17 km/h 96% 0.00 mm 0.00 W/m2 unknown
06:04 3.0 °C 3.0 °C 1003.2 hPa West 10 km/h 16 km/h 96% 0.00 mm 0.00 W/m2 unknown
06:09 3.0 °C 3.0 °C 1003.2 hPa West 8 km/h 14 km/h 96% 0.00 mm 0.00 W/m2 unknown
06:14 3.0 °C 3.0 °C 1003.4 hPa WSW 10 km/h 15 km/h 96% 0.00 mm 0.00 W/m2 unknown
06:19 3.0 °C 3.0 °C 1003.3 hPa West 13 km/h 19 km/h 96% 0.00 mm 0.00 W/m2 unknown
06:24 3.0 °C 3.0 °C 1003.3 hPa West 11 km/h 19 km/h 96% 0.00 mm 0.00 W/m2 unknown
06:29 3.0 °C 3.0 °C 1003.4 hPa West 10 km/h 13 km/h 96% 0.00 mm 0.00 W/m2 unknown
06:34 3.0 °C 3.0 °C 1003.4 hPa West 11 km/h 15 km/h 96% 0.00 mm 0.00 W/m2 unknown
06:39 3.0 °C 3.0 °C 1003.3 hPa WNW 13 km/h 17 km/h 96% 0.00 mm 0.00 W/m2 unknown
06:44 3.0 °C 3.0 °C 1003.2 hPa WNW 13 km/h 17 km/h 96% 0.00 mm 0.00 W/m2 unknown
06:49 3.0 °C 3.0 °C 1003.3 hPa West 12 km/h 17 km/h 96% 0.00 mm 0.00 W/m2 unknown
06:54 3.0 °C 3.0 °C 1003.5 hPa West 14 km/h 17 km/h 96% 0.00 mm 0.00 W/m2 unknown
06:59 3.0 °C 3.0 °C 1003.5 hPa West 14 km/h 19 km/h 96% 0.00 mm 0.00 W/m2 unknown
07:04 3.0 °C 3.0 °C 1003.4 hPa West 12 km/h 19 km/h 96% 0.00 mm 0.00 W/m2 unknown
07:09 3.0 °C 3.0 °C 1003.5 hPa West 13 km/h 18 km/h 96% 0.00 mm 0.00 W/m2 unknown
07:14 3.0 °C 3.0 °C 1003.5 hPa West 12 km/h 19 km/h 96% 0.00 mm 0.00 W/m2 unknown
07:19 3.0 °C 3.0 °C 1003.4 hPa West 12 km/h 15 km/h 96% 0.00 mm 0.00 W/m2 unknown
07:24 3.0 °C 3.0 °C 1003.4 hPa West 10 km/h 14 km/h 96% 0.00 mm 0.00 W/m2 unknown
07:29 3.0 °C 3.0 °C 1003.3 hPa WNW 10 km/h 13 km/h 96% 0.00 mm 0.00 W/m2 unknown
07:34 3.0 °C 3.0 °C 1003.3 hPa West 12 km/h 16 km/h 96% 0.00 mm 0.00 W/m2 unknown
07:39 3.0 °C 3.0 °C 1003.3 hPa West 13 km/h 17 km/h 96% 0.00 mm 0.00 W/m2 unknown
07:44 3.0 °C 3.0 °C 1003.4 hPa WNW 12 km/h 19 km/h 96% 0.00 mm 0.00 W/m2 unknown
07:49 3.0 °C 3.0 °C 1003.5 hPa West 12 km/h 19 km/h 96% 0.00 mm 0.00 W/m2 unknown
07:54 3.0 °C 3.0 °C 1003.5 hPa West 11 km/h 19 km/h 96% 0.00 mm 0.00 W/m2 unknown
07:59 3.0 °C 3.0 °C 1003.6 hPa West 13 km/h 19 km/h 96% 0.00 mm 0.00 W/m2 unknown
08:04 3.0 °C 3.0 °C 1003.6 hPa WNW 13 km/h 19 km/h 96% 0.00 mm 0.00 W/m2 unknown
08:09 3.0 °C 3.0 °C 1003.6 hPa West 13 km/h 19 km/h 96% 0.00 mm 0.00 W/m2 unknown
08:14 3.0 °C 3.0 °C 1003.6 hPa West 14 km/h 19 km/h 96% 0.00 mm 0.00 W/m2 unknown
08:19 3.0 °C 3.0 °C 1003.8 hPa WNW 15 km/h 21 km/h 96% 0.00 mm 7.00 W/m2 unknown
08:24 3.0 °C 3.0 °C 1003.8 hPa West 13 km/h 21 km/h 96% 0.20 mm 11.00 W/m2 unknown
08:29 3.0 °C 3.0 °C 1003.9 hPa WNW 10 km/h 17 km/h 96% 0.20 mm 16.00 W/m2 unknown
08:34 3.0 °C 3.0 °C 1004.1 hPa WNW 12 km/h 19 km/h 96% 0.20 mm 16.00 W/m2 unknown
08:39 3.0 °C 3.0 °C 1004.1 hPa West 12 km/h 19 km/h 96% 0.20 mm 7.00 W/m2 unknown
08:44 3.0 °C 3.0 °C 1004.2 hPa West 11 km/h 17 km/h 96% 0.41 mm 7.00 W/m2 unknown
08:49 3.0 °C 3.0 °C 1004.4 hPa WSW 10 km/h 16 km/h 96% 0.41 mm 7.00 W/m2 unknown
08:54 3.0 °C 3.0 °C 1004.3 hPa West 10 km/h 13 km/h 96% 0.41 mm 7.00 W/m2 unknown
08:59 3.0 °C 3.0 °C 1004.4 hPa West 10 km/h 13 km/h 96% 0.41 mm 5.00 W/m2 unknown
09:04 3.0 °C 3.0 °C 1004.5 hPa West 11 km/h 13 km/h 96% 0.41 mm 7.00 W/m2 unknown
09:09 3.0 °C 3.0 °C 1004.6 hPa West 10 km/h 13 km/h 96% 0.41 mm 7.00 W/m2 unknown
09:14 3.0 °C 3.0 °C 1004.6 hPa WSW 10 km/h 13 km/h 96% 0.41 mm 11.00 W/m2 unknown
09:19 3.0 °C 3.0 °C 1004.6 hPa West 10 km/h 17 km/h 96% 0.41 mm 12.00 W/m2 unknown
09:24 3.0 °C 3.0 °C 1004.8 hPa West 11 km/h 16 km/h 96% 0.41 mm 14.00 W/m2 unknown
09:29 3.0 °C 3.0 °C 1004.7 hPa West 11 km/h 15 km/h 96% 0.41 mm 16.00 W/m2 unknown
09:34 3.0 °C 3.0 °C 1004.7 hPa WNW 10 km/h 15 km/h 96% 0.20 mm 18.00 W/m2 unknown
09:39 3.0 °C 3.0 °C 1004.7 hPa WNW 8 km/h 14 km/h 96% 0.41 mm 21.00 W/m2 unknown
09:44 3.0 °C 3.0 °C 1004.7 hPa West 8 km/h 15 km/h 96% 0.41 mm 21.00 W/m2 unknown
09:49 3.0 °C 3.0 °C 1004.7 hPa West 9 km/h 14 km/h 96% 0.41 mm 21.00 W/m2 unknown
09:54 3.0 °C 3.0 °C 1004.7 hPa WNW 10 km/h 13 km/h 96% 0.20 mm 23.00 W/m2 unknown
09:59 3.0 °C 3.0 °C 1004.8 hPa WNW 10 km/h 13 km/h 96% 0.20 mm 25.00 W/m2 unknown
10:04 4.0 °C 3.0 °C 1004.9 hPa WNW 10 km/h 13 km/h 96% 0.20 mm 28.00 W/m2 unknown
10:09 4.0 °C 3.0 °C 1004.9 hPa WNW 11 km/h 13 km/h 96% 0.20 mm 23.00 W/m2 unknown
10:14 4.0 °C 3.0 °C 1005.0 hPa WNW 10 km/h 13 km/h 96% 0.20 mm 33.00 W/m2 unknown
10:19 4.0 °C 3.0 °C 1005.0 hPa WNW 10 km/h 13 km/h 96% 0.20 mm 70.00 W/m2 unknown
10:24 4.0 °C 3.0 °C 1005.1 hPa WNW 10 km/h 13 km/h 96% 0.20 mm 102.00 W/m2 unknown
10:29 4.0 °C 3.0 °C 1005.1 hPa WNW 10 km/h 13 km/h 96% 0.20 mm 97.00 W/m2 unknown
10:34 4.0 °C 3.0 °C 1005.1 hPa WNW 11 km/h 13 km/h 96% 0.20 mm 95.00 W/m2 unknown
10:39 4.0 °C 3.0 °C 1005.2 hPa West 9 km/h 13 km/h 96% 0.20 mm 58.00 W/m2 unknown
10:44 4.0 °C 3.0 °C 1005.2 hPa West 10 km/h 13 km/h 96% 0.20 mm 62.00 W/m2 unknown
10:49 4.0 °C 4.0 °C 1005.2 hPa West 10 km/h 13 km/h 96% 0.00 mm 63.00 W/m2 unknown
10:54 4.0 °C 4.0 °C 1005.2 hPa West 9 km/h 11 km/h 96% 0.00 mm 84.00 W/m2 unknown
10:59 4.0 °C 4.0 °C 1005.2 hPa WNW 14 km/h 18 km/h 96% 0.00 mm 93.00 W/m2 unknown
11:04 4.0 °C 4.0 °C 1005.0 hPa WNW 14 km/h 19 km/h 96% 0.00 mm 81.00 W/m2 unknown
11:09 4.0 °C 4.0 °C 1005.1 hPa WNW 13 km/h 19 km/h 96% 0.00 mm 53.00 W/m2 unknown
11:14 4.0 °C 4.0 °C 1005.2 hPa West 10 km/h 16 km/h 96% 0.00 mm 49.00 W/m2 unknown
11:19 4.0 °C 4.0 °C 1005.2 hPa West 11 km/h 13 km/h 96% 0.00 mm 58.00 W/m2 unknown
11:24 4.0 °C 4.0 °C 1004.9 hPa West 11 km/h 13 km/h 96% 0.00 mm 58.00 W/m2 unknown
11:29 4.0 °C 4.0 °C 1004.9 hPa WNW 9 km/h 13 km/h 96% 0.00 mm 54.00 W/m2 unknown
11:34 4.0 °C 4.0 °C 1005.1 hPa WNW 9 km/h 13 km/h 96% 0.00 mm 56.00 W/m2 unknown
11:39 4.0 °C 4.0 °C 1005.1 hPa WNW 9 km/h 11 km/h 96% 0.00 mm 54.00 W/m2 unknown
11:44 4.0 °C 4.0 °C 1005.2 hPa West 11 km/h 13 km/h 96% 0.00 mm 49.00 W/m2 unknown
11:49 4.0 °C 4.0 °C 1005.3 hPa West 8 km/h 13 km/h 96% 0.00 mm 44.00 W/m2 unknown
11:54 4.0 °C 4.0 °C 1005.3 hPa West 10 km/h 15 km/h 96% 0.00 mm 60.00 W/m2 unknown
11:59 4.0 °C 4.0 °C 1005.2 hPa West 10 km/h 15 km/h 96% 0.00 mm 60.00 W/m2 unknown
12:04 4.0 °C 4.0 °C 1005.1 hPa West 9 km/h 14 km/h 96% 0.00 mm 60.00 W/m2 unknown
12:09 4.0 °C 4.0 °C 1005.2 hPa West 10 km/h 13 km/h 96% 0.00 mm 56.00 W/m2 unknown
12:14 4.0 °C 4.0 °C 1005.3 hPa West 10 km/h 13 km/h 96% 0.00 mm 35.00 W/m2 unknown
12:19 4.0 °C 4.0 °C 1005.3 hPa West 10 km/h 15 km/h 96% 0.00 mm 40.00 W/m2 unknown
12:24 4.0 °C 4.0 °C 1005.3 hPa WSW 10 km/h 14 km/h 96% 0.00 mm 37.00 W/m2 unknown
12:29 4.0 °C 4.0 °C 1005.3 hPa West 9 km/h 11 km/h 96% 0.00 mm 37.00 W/m2 unknown
12:34 4.0 °C 4.0 °C 1005.2 hPa West 10 km/h 11 km/h 96% 0.00 mm 40.00 W/m2 unknown
12:39 5.0 °C 4.0 °C 1005.1 hPa West 8 km/h 11 km/h 96% 0.00 mm 40.00 W/m2 unknown
12:44 5.0 °C 4.0 °C 1005.1 hPa West 9 km/h 13 km/h 96% 0.00 mm 39.00 W/m2 unknown
12:49 5.0 °C 4.0 °C 1005.1 hPa West 10 km/h 15 km/h 96% 0.00 mm 33.00 W/m2 unknown
12:54 5.0 °C 4.0 °C 1004.9 hPa West 9 km/h 14 km/h 96% 0.00 mm 37.00 W/m2 unknown
12:59 5.0 °C 4.0 °C 1004.9 hPa West 8 km/h 11 km/h 96% 0.00 mm 33.00 W/m2 unknown
13:04 5.0 °C 4.0 °C 1005.1 hPa WSW 8 km/h 11 km/h 96% 0.00 mm 32.00 W/m2 unknown
13:09 5.0 °C 4.0 °C 1005.1 hPa WSW 10 km/h 13 km/h 96% 0.00 mm 28.00 W/m2 unknown
13:14 5.0 °C 4.0 °C 1005.1 hPa West 10 km/h 13 km/h 96% 0.00 mm 32.00 W/m2 unknown
13:19 5.0 °C 4.0 °C 1005.1 hPa West 8 km/h 13 km/h 96% 0.00 mm 32.00 W/m2 unknown
13:24 5.0 °C 4.0 °C 1005.1 hPa West 8 km/h 11 km/h 96% 0.00 mm 39.00 W/m2 unknown
13:29 5.0 °C 4.0 °C 1005.1 hPa West 8 km/h 10 km/h 96% 0.00 mm 39.00 W/m2 unknown
13:34 5.0 °C 4.0 °C 1005.2 hPa WSW 6 km/h 10 km/h 96% 0.00 mm 40.00 W/m2 unknown
13:39 5.0 °C 4.0 °C 1005.2 hPa WSW 8 km/h 11 km/h 96% 0.00 mm 33.00 W/m2 unknown
13:44 5.0 °C 4.0 °C 1005.1 hPa WSW 9 km/h 14 km/h 96% 0.00 mm 42.00 W/m2 unknown
13:49 5.0 °C 4.0 °C 1005.2 hPa WSW 10 km/h 15 km/h 96% 0.00 mm 37.00 W/m2 unknown
13:54 5.0 °C 4.0 °C 1005.2 hPa West 9 km/h 14 km/h 96% 0.00 mm 35.00 W/m2 unknown
13:59 5.0 °C 4.0 °C 1005.2 hPa WSW 8 km/h 11 km/h 96% 0.00 mm 35.00 W/m2 unknown
14:04 5.0 °C 4.0 °C 1005.2 hPa WSW 7 km/h 11 km/h 96% 0.00 mm 37.00 W/m2 unknown
14:09 5.0 °C 4.0 °C 1005.2 hPa West 11 km/h 15 km/h 96% 0.00 mm 35.00 W/m2 unknown
14:14 5.0 °C 4.0 °C 1005.3 hPa WSW 10 km/h 15 km/h 96% 0.00 mm 33.00 W/m2 unknown
14:19 5.0 °C 4.0 °C 1005.3 hPa WSW 10 km/h 14 km/h 96% 0.00 mm 37.00 W/m2 unknown
14:24 5.0 °C 4.0 °C 1005.4 hPa WSW 10 km/h 13 km/h 96% 0.00 mm 37.00 W/m2 unknown
14:29 5.0 °C 4.0 °C 1005.4 hPa WSW 10 km/h 11 km/h 96% 0.00 mm 40.00 W/m2 unknown
14:34 5.0 °C 4.0 °C 1005.5 hPa WSW 9 km/h 11 km/h 96% 0.00 mm 40.00 W/m2 unknown
14:39 5.0 °C 4.0 °C 1005.6 hPa WSW 8 km/h 11 km/h 96% 0.00 mm 25.00 W/m2 unknown
14:44 5.0 °C 4.0 °C 1005.5 hPa WSW 7 km/h 11 km/h 96% 0.00 mm 19.00 W/m2 unknown
14:49 5.0 °C 4.0 °C 1005.5 hPa West 8 km/h 11 km/h 96% 0.00 mm 19.00 W/m2 unknown
14:54 5.0 °C 4.0 °C 1005.5 hPa West 9 km/h 11 km/h 96% 0.00 mm 21.00 W/m2 unknown
14:59 5.0 °C 4.0 °C 1005.5 hPa West 9 km/h 13 km/h 96% 0.00 mm 21.00 W/m2 unknown
15:04 5.0 °C 4.0 °C 1005.5 hPa West 6 km/h 13 km/h 96% 0.00 mm 21.00 W/m2 unknown
15:09 5.0 °C 4.0 °C 1005.6 hPa West 6 km/h 8 km/h 96% 0.00 mm 21.00 W/m2 unknown
15:14 5.0 °C 5.0 °C 1005.7 hPa West 7 km/h 10 km/h 96% 0.00 mm 16.00 W/m2 unknown
15:19 5.0 °C 5.0 °C 1005.7 hPa West 8 km/h 10 km/h 96% 0.00 mm 14.00 W/m2 unknown
15:22 5.0 °C 5.0 °C 1005.6 hPa WSW 5 km/h 10 km/h 96% 0.00 mm 11.00 W/m2 unknown
15:29 5.0 °C 5.0 °C 1005.7 hPa West 6 km/h 8 km/h 96% 0.00 mm 21.00 W/m2 unknown
15:34 5.0 °C 5.0 °C 1005.8 hPa West 7 km/h 10 km/h 96% 0.00 mm 28.00 W/m2 unknown
15:39 5.0 °C 5.0 °C 1005.8 hPa West 8 km/h 10 km/h 96% 0.00 mm 28.00 W/m2 unknown
15:44 5.0 °C 5.0 °C 1005.8 hPa West 5 km/h 8 km/h 96% 0.00 mm 23.00 W/m2 unknown
15:49 5.0 °C 5.0 °C 1005.8 hPa West 6 km/h 8 km/h 96% 0.00 mm 16.00 W/m2 unknown
15:54 5.0 °C 5.0 °C 1005.9 hPa West 7 km/h 10 km/h 96% 0.00 mm 12.00 W/m2 unknown
15:59 5.0 °C 5.0 °C 1006.0 hPa West 7 km/h 10 km/h 96% 0.00 mm 9.00 W/m2 unknown
16:04 5.0 °C 5.0 °C 1006.1 hPa WSW 7 km/h 10 km/h 96% 0.00 mm 5.00 W/m2 unknown
16:09 5.0 °C 5.0 °C 1006.2 hPa WSW 7 km/h 10 km/h 96% 0.00 mm 0.00 W/m2 unknown
16:14 5.0 °C 5.0 °C 1006.3 hPa WSW 5 km/h 10 km/h 96% 0.00 mm 0.00 W/m2 unknown
16:19 5.0 °C 5.0 °C 1006.3 hPa West 6 km/h 8 km/h 96% 0.00 mm 0.00 W/m2 unknown
16:24 5.0 °C 5.0 °C 1006.5 hPa West 6 km/h 8 km/h 96% 0.00 mm 0.00 W/m2 unknown
16:29 5.0 °C 5.0 °C 1006.6 hPa West 9 km/h 11 km/h 96% 0.00 mm 0.00 W/m2 unknown
16:34 5.0 °C 5.0 °C 1006.5 hPa WNW 5 km/h 11 km/h 96% 0.00 mm 0.00 W/m2 unknown
16:39 5.0 °C 5.0 °C 1006.6 hPa WSW 6 km/h 8 km/h 96% 0.00 mm 0.00 W/m2 unknown
16:44 5.0 °C 5.0 °C 1006.6 hPa West 6 km/h 8 km/h 96% 0.00 mm 0.00 W/m2 unknown
16:49 5.0 °C 5.0 °C 1006.6 hPa West 7 km/h 8 km/h 96% 0.00 mm 0.00 W/m2 unknown
16:54 5.0 °C 5.0 °C 1006.6 hPa West 6 km/h 8 km/h 96% 0.00 mm 0.00 W/m2 unknown
16:59 5.0 °C 5.0 °C 1006.7 hPa West 5 km/h 8 km/h 96% 0.00 mm 0.00 W/m2 unknown
17:04 5.0 °C 5.0 °C 1006.7 hPa West 5 km/h 8 km/h 96% 0.00 mm 0.00 W/m2 unknown
17:09 5.0 °C 5.0 °C 1006.8 hPa West 6 km/h 8 km/h 96% 0.00 mm 0.00 W/m2 unknown
17:14 5.0 °C 5.0 °C 1006.9 hPa WSW 5 km/h 8 km/h 96% 0.00 mm 0.00 W/m2 unknown
17:19 5.0 °C 5.0 °C 1007.0 hPa WSW 4 km/h 6 km/h 96% 0.00 mm 0.00 W/m2 unknown
17:24 5.0 °C 5.0 °C 1007.0 hPa West 6 km/h 8 km/h 96% 0.00 mm 0.00 W/m2 unknown
17:29 5.0 °C 5.0 °C 1007.1 hPa West 5 km/h 8 km/h 96% 0.00 mm 0.00 W/m2 unknown
17:34 5.0 °C 5.0 °C 1007.1 hPa West 6 km/h 8 km/h 100% 0.00 mm 0.00 W/m2 unknown
17:39 5.0 °C 5.0 °C 1006.9 hPa West 5 km/h 8 km/h 98% 0.00 mm 0.00 W/m2 unknown
17:44 5.0 °C 5.0 °C 1006.9 hPa WNW 5 km/h 8 km/h 100% 0.00 mm 0.00 W/m2 unknown
17:49 5.0 °C 5.0 °C 1006.9 hPa WNW 5 km/h 8 km/h 100% 0.00 mm 0.00 W/m2 unknown
17:54 5.0 °C 5.0 °C 1006.9 hPa WNW 7 km/h 8 km/h 100% 0.00 mm 0.00 W/m2 unknown
17:59 5.0 °C 5.0 °C 1006.9 hPa WNW 9 km/h 11 km/h 100% 0.00 mm 0.00 W/m2 unknown
18:04 5.0 °C 5.0 °C 1007.3 hPa West 8 km/h 11 km/h 100% 0.00 mm 0.00 W/m2 unknown
18:09 5.0 °C 5.0 °C 1007.3 hPa WSW 7 km/h 11 km/h 100% 0.00 mm 0.00 W/m2 unknown
18:14 5.0 °C 5.0 °C 1007.3 hPa WSW 6 km/h 10 km/h 96% 0.00 mm 0.00 W/m2 unknown
18:19 5.0 °C 5.0 °C 1007.4 hPa WSW 5 km/h 10 km/h 100% 0.00 mm 0.00 W/m2 unknown
18:24 5.0 °C 5.0 °C 1007.3 hPa West 7 km/h 8 km/h 96% 0.00 mm 0.00 W/m2 unknown
18:29 5.0 °C 5.0 °C 1007.3 hPa WNW 8 km/h 8 km/h 96% 0.00 mm 0.00 W/m2 unknown
18:34 5.0 °C 5.0 °C 1007.2 hPa West 8 km/h 11 km/h 96% 0.00 mm 0.00 W/m2 unknown
18:39 5.0 °C 5.0 °C 1007.3 hPa West 8 km/h 11 km/h 96% 0.00 mm 0.00 W/m2 unknown
18:44 5.0 °C 5.0 °C 1007.2 hPa WNW 9 km/h 13 km/h 96% 0.00 mm 0.00 W/m2 unknown
18:49 5.0 °C 5.0 °C 1007.2 hPa WNW 9 km/h 13 km/h 96% 0.00 mm 0.00 W/m2 unknown
18:54 5.0 °C 5.0 °C 1007.4 hPa West 9 km/h 13 km/h 96% 0.00 mm 0.00 W/m2 unknown
18:59 5.0 °C 5.0 °C 1007.4 hPa WNW 9 km/h 11 km/h 96% 0.00 mm 0.00 W/m2 unknown
19:04 5.0 °C 5.0 °C 1007.4 hPa West 8 km/h 11 km/h 96% 0.00 mm 0.00 W/m2 unknown
19:09 5.0 °C 5.0 °C 1007.3 hPa West 7 km/h 10 km/h 96% 0.00 mm 0.00 W/m2 unknown
19:14 5.0 °C 5.0 °C 1007.4 hPa West 9 km/h 11 km/h 96% 0.00 mm 0.00 W/m2 unknown
19:19 5.0 °C 5.0 °C 1007.4 hPa West 10 km/h 11 km/h 100% 0.00 mm 0.00 W/m2 unknown
19:24 5.0 °C 5.0 °C 1007.4 hPa West 7 km/h 10 km/h 100% 0.00 mm 0.00 W/m2 unknown
19:29 5.0 °C 5.0 °C 1007.4 hPa WNW 10 km/h 15 km/h 96% 0.00 mm 0.00 W/m2 unknown
19:34 5.0 °C 5.0 °C 1007.4 hPa WNW 11 km/h 14 km/h 96% 0.00 mm 0.00 W/m2 unknown
19:39 5.0 °C 5.0 °C 1007.5 hPa WNW 10 km/h 13 km/h 96% 0.00 mm 0.00 W/m2 unknown
19:44 5.0 °C 5.0 °C 1007.6 hPa WNW 10 km/h 13 km/h 96% 0.00 mm 0.00 W/m2 unknown
19:49 5.0 °C 5.0 °C 1007.6 hPa WNW 8 km/h 13 km/h 96% 0.00 mm 0.00 W/m2 unknown
19:54 5.0 °C 5.0 °C 1007.6 hPa WNW 10 km/h 13 km/h 96% 0.00 mm 0.00 W/m2 unknown
19:59 5.0 °C 5.0 °C 1007.5 hPa WNW 10 km/h 13 km/h 96% 0.00 mm 0.00 W/m2 unknown
20:04 5.0 °C 5.0 °C 1007.5 hPa WNW 10 km/h 13 km/h 96% 0.00 mm 0.00 W/m2 unknown
20:09 5.0 °C 5.0 °C 1007.6 hPa WNW 8 km/h 13 km/h 96% 0.00 mm 0.00 W/m2 unknown
20:14 5.0 °C 5.0 °C 1007.7 hPa West 7 km/h 10 km/h 96% 0.00 mm 0.00 W/m2 unknown
20:19 5.0 °C 5.0 °C 1007.6 hPa West 5 km/h 10 km/h 96% 0.00 mm 0.00 W/m2 unknown
20:24 5.0 °C 5.0 °C 1007.6 hPa West 5 km/h 6 km/h 96% 0.00 mm 0.00 W/m2 unknown
20:29 5.0 °C 5.0 °C 1007.7 hPa West 6 km/h 6 km/h 96% 0.00 mm 0.00 W/m2 unknown
20:34 5.0 °C 5.0 °C 1007.8 hPa West 5 km/h 6 km/h 96% 0.00 mm 0.00 W/m2 unknown
20:39 5.0 °C 5.0 °C 1008.0 hPa WSW 5 km/h 6 km/h 96% 0.00 mm 0.00 W/m2 unknown
20:44 5.0 °C 5.0 °C 1008.0 hPa WSW 6 km/h 10 km/h 96% 0.00 mm 0.00 W/m2 unknown
20:49 5.0 °C 5.0 °C 1008.0 hPa WSW 6 km/h 9 km/h 96% 0.00 mm 0.00 W/m2 unknown
20:54 5.0 °C 5.0 °C 1008.1 hPa WSW 8 km/h 10 km/h 96% 0.00 mm 0.00 W/m2 unknown
20:59 5.0 °C 5.0 °C 1008.1 hPa West 7 km/h 10 km/h 96% 0.00 mm 0.00 W/m2 unknown
21:04 5.0 °C 5.0 °C 1008.1 hPa West 8 km/h 10 km/h 96% 0.00 mm 0.00 W/m2 unknown
21:09 5.0 °C 5.0 °C 1008.2 hPa WNW 7 km/h 10 km/h 96% 0.00 mm 0.00 W/m2 unknown
21:14 5.0 °C 5.0 °C 1008.2 hPa West 5 km/h 10 km/h 96% 0.00 mm 0.00 W/m2 unknown
21:19 5.0 °C 5.0 °C 1008.2 hPa West 6 km/h 10 km/h 96% 0.00 mm 0.00 W/m2 unknown
21:24 5.0 °C 5.0 °C 1008.2 hPa West 7 km/h 10 km/h 96% 0.00 mm 0.00 W/m2 unknown
21:29 5.0 °C 5.0 °C 1008.2 hPa WNW 7 km/h 10 km/h 96% 0.00 mm 0.00 W/m2 unknown
21:34 5.0 °C 5.0 °C 1008.2 hPa WNW 9 km/h 11 km/h 96% 0.00 mm 0.00 W/m2 unknown
21:39 5.0 °C 5.0 °C 1008.3 hPa West 8 km/h 11 km/h 96% 0.00 mm 0.00 W/m2 unknown
21:44 5.0 °C 5.0 °C 1008.4 hPa West 8 km/h 11 km/h 96% 0.00 mm 0.00 W/m2 unknown
21:49 5.0 °C 5.0 °C 1008.5 hPa West 9 km/h 11 km/h 96% 0.00 mm 0.00 W/m2 unknown
21:54 5.0 °C 5.0 °C 1008.5 hPa WNW 9 km/h 13 km/h 96% 0.00 mm 0.00 W/m2 unknown
21:59 5.0 °C 5.0 °C 1008.6 hPa West 10 km/h 13 km/h 96% 0.00 mm 0.00 W/m2 unknown
22:04 5.0 °C 5.0 °C 1008.6 hPa West 9 km/h 13 km/h 96% 0.00 mm 0.00 W/m2 unknown
22:09 5.0 °C 5.0 °C 1008.6 hPa West 10 km/h 13 km/h 96% 0.00 mm 0.00 W/m2 unknown
22:14 5.0 °C 5.0 °C 1008.7 hPa West 6 km/h 13 km/h 96% 0.00 mm 0.00 W/m2 unknown
22:19 5.0 °C 5.0 °C 1008.7 hPa WSW 7 km/h 10 km/h 96% 0.00 mm 0.00 W/m2 unknown
22:24 5.0 °C 5.0 °C 1008.8 hPa WSW 7 km/h 8 km/h 96% 0.00 mm 0.00 W/m2 unknown
22:29 5.0 °C 5.0 °C 1008.9 hPa WSW 7 km/h 10 km/h 96% 0.00 mm 0.00 W/m2 unknown
22:34 5.0 °C 5.0 °C 1008.8 hPa WNW 10 km/h 11 km/h 96% 0.00 mm 0.00 W/m2 unknown
22:39 5.0 °C 5.0 °C 1008.9 hPa WNW 10 km/h 11 km/h 96% 0.00 mm 0.00 W/m2 unknown
22:44 5.0 °C 5.0 °C 1009.1 hPa WNW 11 km/h 15 km/h 96% 0.00 mm 0.00 W/m2 unknown
22:49 5.0 °C 5.0 °C 1009.3 hPa West 10 km/h 14 km/h 96% 0.00 mm 0.00 W/m2 unknown
22:54 5.0 °C 5.0 °C 1009.3 hPa West 8 km/h 13 km/h 96% 0.00 mm 0.00 W/m2 unknown
22:59 5.0 °C 5.0 °C 1009.4 hPa SW 5 km/h 10 km/h 96% 0.00 mm 0.00 W/m2 unknown
23:04 5.0 °C 5.0 °C 1009.4 hPa SW 4 km/h 6 km/h 96% 0.00 mm 0.00 W/m2 unknown
23:09 5.0 °C 5.0 °C 1009.5 hPa WSW 7 km/h 10 km/h 96% 0.00 mm 0.00 W/m2 unknown
23:14 5.0 °C 5.0 °C 1009.6 hPa WSW 8 km/h 10 km/h 96% 0.00 mm 0.00 W/m2 unknown
23:19 5.0 °C 5.0 °C 1009.6 hPa WSW 8 km/h 9 km/h 96% 0.00 mm 0.00 W/m2 unknown
23:24 5.0 °C 5.0 °C 1009.7 hPa WSW 7 km/h 11 km/h 96% 0.00 mm 0.00 W/m2 unknown
23:29 5.0 °C 5.0 °C 1009.7 hPa West 7 km/h 8 km/h 96% 0.00 mm 0.00 W/m2 unknown
23:34 5.0 °C 5.0 °C 1009.7 hPa West 6 km/h 8 km/h 96% 0.00 mm 0.00 W/m2 unknown
23:39 5.0 °C 5.0 °C 1009.7 hPa WSW 5 km/h 8 km/h 96% 0.00 mm 0.00 W/m2 unknown
23:44 5.0 °C 5.0 °C 1009.6 hPa WNW 8 km/h 10 km/h 96% 0.00 mm 0.00 W/m2 unknown
23:49 5.0 °C 5.0 °C 1009.6 hPa West 8 km/h 10 km/h 96% 0.00 mm 0.00 W/m2 unknown
23:54 5.0 °C 5.0 °C 1009.6 hPa West 6 km/h 10 km/h 96% 0.00 mm 0.00 W/m2 unknown
23:59 5.0 °C 5.0 °C 1009.5 hPa WNW 8 km/h 10 km/h 96% 0.00 mm 0.00 W/m2 unknown
Stazione Meteorologica MeteoMincio Rivalta s/M (MN)
Con i complimenti di Weather Underground - 4 mb



METEO PILLOLE
Il luogo più freddo della Terra
Stazione Sovetskaja - Antartide
La temperatura media nel 1957/58 è stata di - 57.3°C.
Share

Non seguire questo link o sarai bannato dal sito!